Vorticity
5 5 6 6 6 7 8 7 7 7 7 7 9 10 11 11 8 7 5 3 4 4 1 2 5 3 2 3 2 3 4 5 5 5 5 6 8 8 8 7 7 6 5 5 5 5 5 3 4 4 4 3 2 3 4 2 3 5 4 4 4 4 5 6 5 5 5 4 4 5 4 5 6 5 4 4 3 4 5 5 5 5 3 1 6 10 7
5 6 6 6 6 7 7 7 7 7 6 6 8 9 11 13 9 8 9 7 7 6 4 6 7 5 5 4 4 4 5 7 6 6 6 6 8 9 7 6 6 5 5 6 6 4 3 3 3 4 4 4 3 4 4 3 3 5 5 4 4 4 4 5 5 5 5 4 4 5 5 5 5 4 5 5 4 4 5 4 5 6 5 4 6 8 8
5 5 6 5 5 6 7 7 7 8 8 7 8 7 9 12 10 10 11 10 9 8 7 9 9 8 7 6 5 6 7 7 7 6 7 7 9 9 7 6 7 5 5 6 5 4 3 3 4 4 4 4 4 5 5 5 4 5 5 5 4 4 4 4 4 4 4 3 3 5 5 5 5 5 6 6 4 4 4 5 6 6 8 10 3 0 6
5 5 5 5 5 5 5 6 5 7 9 9 10 9 9 10 10 10 10 11 11 10 9 10 8 6 7 6 5 6 7 7 7 7 8 8 8 8 7 6 6 5 4 3 4 5 4 5 6 5 5 5 4 5 5 5 6 5 5 5 5 5 4 4 3 4 5 5 4 5 5 6 5 5 7 6 4 3 3 5 7 4 6 10 3 -1 5
5 5 5 5 5 4 4 5 4 5 6 6 8 9 8 8 8 9 9 8 9 9 8 8 7 5 6 6 6 6 6 6 7 8 9 8 6 5 5 5 4 4 4 4 5 6 5 6 7 6 6 5 5 6 5 5 5 4 5 6 5 5 6 5 4 4 5 6 4 5 6 6 5 5 7 6 4 4 4 4 6 5 3 6 7 5 3
4 5 5 4 5 4 4 4 4 3 4 4 5 5 6 6 6 8 9 6 7 8 6 6 6 6 7 7 7 7 6 7 7 7 8 7 5 4 4 4 5 5 6 7 7 7 7 8 7 6 7 5 4 5 5 5 5 4 5 6 5 5 6 7 6 3 4 6 5 5 6 7 6 5 6 6 4 5 4 2 5 7 3 2 6 8 4
4 4 5 5 5 4 4 4 4 3 3 3 4 3 4 5 5 6 8 8 7 7 6 7 7 7 7 8 8 8 8 8 8 7 7 7 6 6 6 6 7 8 8 8 8 7 8 7 5 5 6 5 4 5 4 5 5 4 5 5 4 5 5 6 7 4 4 6 5 4 6 7 6 5 6 6 4 5 6 2 3 6 5 2 4 7 7
3 4 4 5 5 4 4 4 4 4 3 3 3 3 3 4 4 4 4 6 6 6 5 6 6 7 8 8 8 9 9 10 9 8 8 8 7 8 8 8 8 8 7 7 6 6 7 5 3 5 6 4 4 5 4 5 4 3 5 4 3 5 5 4 6 6 5 5 5 5 7 8 6 4 5 6 5 6 6 3 4 5 5 4 3 5 8
3 4 4 4 4 5 5 5 4 4 4 3 3 3 3 3 3 3 3 3 4 5 5 6 7 7 8 7 8 9 9 10 9 8 8 7 7 8 7 7 7 5 5 6 5 4 6 5 2 4 7 4 3 5 4 4 4 3 5 4 3 5 4 3 5 6 5 4 4 6 7 7 6 5 6 6 6 6 6 6 6 4 3 4 4 5 7
4 4 4 4 4 4 4 5 5 4 3 3 4 3 3 3 3 3 3 3 4 4 5 6 6 6 5 6 6 6 7 7 6 5 6 6 6 5 4 5 5 3 3 4 4 4 5 5 2 3 6 4 3 5 3 3 5 4 4 4 4 5 4 3 4 6 5 5 5 8 7 5 6 8 7 6 5 5 8 9 6 3 3 4 4 5 8
4 4 4 4 4 4 4 4 4 4 4 4 3 3 3 3 3 3 3 3 4 4 3 3 3 3 3 3 4 4 5 5 3 3 4 4 4 4 3 4 4 3 3 4 4 3 4 4 1 2 5 4 3 4 2 3 5 5 3 3 4 5 4 3 3 5 6 5 6 8 7 3 6 11 8 5 4 5 9 11 7 2 3 4 6 7 8
3 3 4 4 3 3 4 3 4 4 4 4 3 3 3 3 2 3 3 3 3 3 3 2 2 3 2 2 4 4 3 3 3 3 3 3 4 3 3 3 3 2 3 4 3 2 3 4 1 1 4 4 3 4 2 3 6 5 3 3 5 6 4 3 3 5 5 5 6 8 7 5 7 10 6 4 5 5 7 12 7 1 2 5 5 4 5
4 3 3 3 4 4 3 3 4 4 3 4 4 3 3 3 3 3 3 3 3 3 3 3 3 4 4 4 5 4 2 3 3 3 3 4 3 2 3 2 3 3 2 3 3 2 2 3 2 2 3 4 4 4 3 3 5 6 4 3 5 6 5 3 4 4 3 5 8 9 8 7 7 7 4 5 6 5 6 9 6 -0 2 6 3 3 7
5 5 4 3 3 3 4 4 3 3 4 4 4 3 3 3 3 3 2 2 2 2 3 3 3 3 3 4 4 2 2 4 3 2 3 4 2 3 3 2 3 3 3 3 3 2 3 3 3 2 3 4 4 4 3 3 4 6 5 3 4 6 5 4 4 4 3 4 8 8 6 5 6 7 5 6 7 6 4 6 6 3 4 5 4 6 9
3 5 6 6 4 2 3 3 3 3 3 3 3 4 4 3 3 3 3 2 2 3 3 2 3 3 3 3 3 3 3 4 3 3 4 3 3 4 4 3 4 4 3 3 4 3 3 4 4 3 3 5 4 3 4 3 3 6 6 3 4 6 5 4 4 3 2 3 7 10 8 5 6 7 7 6 6 6 5 6 7 5 4 5 6 7 8
8 4 3 5 6 6 4 3 3 3 3 3 4 3 3 3 3 3 3 3 3 3 4 3 3 3 3 3 3 3 3 3 3 3 4 3 3 4 3 3 4 3 3 3 4 4 3 3 4 4 3 5 4 3 4 4 3 5 5 3 4 6 5 5 4 3 2 3 6 11 9 6 6 8 7 6 5 5 6 6 6 5 5 6 7 7 9
17 13 7 3 3 5 7 6 5 4 3 2 3 3 2 2 2 3 3 3 3 3 4 3 3 3 3 3 3 3 3 3 3 3 3 3 4 3 3 3 3 3 3 3 3 3 4 4 3 3 3 4 4 3 4 4 3 5 5 3 4 5 5 5 4 2 4 4 6 10 8 5 6 8 7 6 5 5 6 6 6 6 7 8 9 9 10
14 17 17 12 6 3 3 6 7 7 7 5 3 2 2 2 2 2 2 2 2 2 2 2 2 2 3 2 3 3 3 3 3 3 3 3 4 3 3 3 3 3 3 3 3 4 3 3 3 3 4 4 3 4 5 3 3 5 5 3 4 5 5 5 4 3 5 4 5 9 8 5 7 8 7 6 5 5 6 6 6 7 7 9 11 10 10
8 11 15 17 16 11 5 4 4 5 8 9 8 6 4 3 3 2 1 2 1 1 2 2 1 2 2 2 2 2 2 2 3 3 3 3 3 3 3 3 3 4 3 3 4 4 3 3 3 4 4 3 3 4 4 3 4 6 5 3 5 6 6 5 4 4 5 5 6 7 7 7 8 9 8 6 4 4 5 6 7 7 8 10 9 6 6
12 9 9 12 16 17 14 10 6 4 4 5 8 10 9 8 6 4 3 3 2 2 2 1 1 2 2 2 2 2 2 2 2 3 3 3 3 3 3 3 3 4 4 4 4 3 3 3 3 4 4 3 4 5 3 3 5 6 5 5 6 6 5 5 4 4 5 5 5 5 6 7 10 11 9 6 5 5 5 6 6 6 6 7 6 5 7
20 14 10 9 11 14 16 15 13 10 7 4 4 6 9 11 10 8 7 6 5 4 4 2 3 3 3 3 3 3 3 3 3 3 3 3 4 3 3 4 4 4 4 4 3 3 4 4 4 4 4 5 5 5 4 5 6 4 3 5 7 6 5 4 5 5 4 4 6 6 6 5 8 12 11 7 5 6 7 6 7 8 7 6 6 7 9
21 20 14 11 10 11 13 15 14 13 13 11 8 5 6 8 10 10 10 9 8 7 6 6 5 4 4 4 4 4 5 5 4 5 4 4 4 4 4 4 4 4 4 4 4 4 5 5 5 5 5 5 5 5 6 7 6 4 4 6 8 8 6 5 5 4 4 6 7 6 6 7 10 12 10 5 4 6 7 8 8 9 8 7 8 9 9
14 20 19 14 10 11 12 13 14 13 12 13 13 11 9 9 9 8 9 10 9 9 9 8 8 7 7 6 5 6 7 7 7 7 7 7 6 5 6 6 5 5 5 5 5 6 5 5 6 5 6 6 5 6 7 5 5 6 6 7 10 10 6 5 4 3 5 9 6 3 6 10 12 10 6 5 5 4 5 7 8 9 9 9 10 10 9
9 16 21 18 12 10 11 12 14 13 11 12 12 12 12 12 11 10 9 9 9 9 8 8 8 8 8 7 7 6 6 6 7 7 7 8 8 7 7 7 6 7 6 6 6 6 6 6 6 5 6 6 6 6 6 5 6 6 6 9 13 11 5 4 4 4 6 7 5 3 5 8 9 8 6 6 6 6 6 8 9 9 9 9 9 8 8
8 11 18 21 16 11 9 11 12 12 12 11 10 11 12 13 13 14 12 11 10 9 8 9 9 8 7 7 7 7 6 6 6 6 6 6 6 6 7 7 7 7 7 7 7 6 6 6 5 5 6 5 5 6 4 5 6 4 5 12 15 10 7 7 6 4 5 6 5 5 6 7 8 8 7 7 7 7 7 8 8 8 7 7 7 8 9
9 8 12 20 20 14 11 11 11 11 11 11 11 10 9 10 12 14 14 14 14 13 11 9 9 9 8 7 7 7 7 7 7 6 6 6 6 6 6 5 6 6 5 6 6 5 6 6 6 7 7 5 5 5 4 5 5 3 7 14 12 7 9 11 7 4 5 5 4 4 6 8 7 7 7 8 7 6 6 6 6 7 8 8 8 9 11
8 7 8 15 20 18 13 10 11 13 11 10 11 10 8 8 9 11 12 14 15 16 16 13 11 12 11 10 10 9 8 8 8 8 8 8 8 7 7 6 7 6 6 7 6 6 7 7 6 6 6 6 7 5 4 5 4 3 11 16 11 7 10 9 4 2 4 4 4 3 5 6 6 6 7 7 7 6 5 6 8 9 9 9 8 9 10
7 7 6 10 16 19 17 12 11 13 12 10 10 10 9 8 7 7 9 10 10 13 15 14 13 14 13 12 12 11 10 9 9 9 9 10 9 9 10 10 9 9 9 9 8 8 8 6 6 7 7 8 8 4 3 5 3 6 14 16 10 9 11 8 5 3 3 4 4 4 6 7 6 5 5 6 7 6 4 7 9 9 8 9 10 10 10
7 6 5 7 11 16 18 16 12 11 11 9 6 7 9 8 7 6 7 8 8 10 12 14 13 13 14 13 13 12 12 11 10 9 8 8 9 9 9 10 10 10 10 10 10 10 9 8 9 9 9 9 7 4 4 5 5 8 12 10 10 11 8 6 6 3 0 4 6 5 7 8 6 6 6 6 6 5 4 7 9 6 7 10 10 10 10
7 7 5 6 8 11 17 19 15 13 11 7 6 9 8 7 7 8 6 6 7 7 8 11 12 12 13 13 12 13 14 13 12 12 10 9 9 9 8 9 10 9 9 10 10 9 9 10 10 9 9 8 6 5 5 6 7 9 8 6 12 12 4 4 8 2 -3 4 8 7 8 7 5 6 7 6 7 6 5 7 7 5 8 10 8 7 9
7 7 6 5 6 8 13 17 18 17 14 9 8 10 8 6 7 8 7 6 6 7 8 9 10 11 11 11 11 12 13 13 13 13 13 13 13 12 11 10 9 9 9 9 9 8 9 8 8 8 7 5 3 4 6 6 10 15 12 7 8 5 -2 2 7 1 -1 6 8 6 8 8 7 8 7 6 8 10 9 9 8 6 8 7 4 5 8
6 7 7 5 5 6 9 12 17 19 18 15 11 8 8 8 4 2 5 6 5 3 4 6 10 12 11 11 12 12 11 13 13 12 13 13 13 12 13 12 11 11 10 9 9 9 8 7 8 9 7 3 2 4 6 8 15 22 21 15 9 3 -1 2 4 3 5 10 9 7 8 7 5 8 10 8 7 10 10 7 4 3 5 5 3 5 8
6 5 7 7 5 5 6 8 12 14 17 19 16 11 10 9 5 5 12 18 20 21 16 9 8 11 10 10 11 9 8 10 10 10 11 11 10 11 11 10 10 11 10 10 11 10 8 10 11 8 5 6 6 5 7 14 19 21 22 19 13 6 4 4 7 8 8 9 8 7 9 8 5 5 6 6 5 6 5 1 0 4 7 6 4 5 7
8 3 6 9 7 5 5 6 9 12 14 16 16 15 14 12 11 12 10 7 14 25 25 12 6 7 7 6 6 5 6 7 6 6 8 7 7 8 7 7 8 8 8 10 11 9 11 13 10 6 5 7 5 5 12 19 17 13 16 18 16 12 9 8 8 9 7 7 8 7 7 7 6 4 4 6 6 5 4 3 6 9 8 5 4 5 8
13 3 4 10 10 7 5 5 6 10 13 13 12 13 15 15 17 18 13 4 4 12 13 7 4 5 6 5 5 4 5 5 4 3 4 3 2 3 3 5 6 6 7 10 9 9 10 10 7 7 7 6 7 14 21 19 10 6 10 16 15 12 9 7 7 8 8 8 8 8 7 7 5 3 4 6 7 7 8 9 10 8 5 4 5 6 9
17 5 0 6 11 9 7 7 7 9 13 15 13 11 11 13 16 19 19 15 11 9 6 5 5 6 7 7 7 6 5 5 4 2 2 2 1 0 2 4 4 3 6 8 7 7 7 7 8 8 5 4 13 22 20 11 7 7 12 17 17 12 9 8 8 8 8 9 7 6 7 6 5 5 5 5 6 8 8 7 6 4 3 4 6 6 8
20 10 0 2 9 10 8 7 8 9 10 14 17 14 11 10 11 12 12 12 10 8 7 6 6 7 8 7 6 5 5 6 5 4 4 5 4 4 6 5 4 6 10 8 6 5 5 7 8 4 -1 5 17 20 13 8 8 8 9 14 15 12 9 10 10 8 5 4 4 5 6 4 4 6 8 5 4 5 4 3 3 1 1 3 4 4 7
21 16 5 -1 3 9 10 8 7 9 10 13 17 19 16 11 7 4 3 5 6 6 7 8 10 12 13 11 9 9 9 9 8 6 5 6 6 6 7 5 5 11 11 7 6 5 3 6 7 -1 -4 8 17 13 7 7 7 6 5 6 11 16 12 6 5 8 8 5 3 3 5 3 2 5 7 4 1 1 1 3 3 2 2 3 2 3 8
21 20 11 1 -2 4 10 9 6 6 8 8 12 17 20 19 17 14 12 11 10 9 10 10 12 14 15 14 13 12 11 13 14 12 11 11 10 10 10 7 8 11 10 9 9 5 1 7 8 -4 -5 10 15 8 5 8 9 7 2 1 14 31 29 14 4 2 4 8 9 5 4 5 4 4 3 -0 -1 -0 1 3 4 3 2 3 3 4 7
19 21 15 6 0 1 6 9 8 6 6 5 5 8 12 16 19 20 21 20 19 19 20 19 18 18 17 16 15 12 9 10 12 11 11 11 10 11 12 11 10 10 10 11 11 5 3 11 9 -4 -4 11 12 3 2 6 4 -0 -4 -3 10 21 22 21 19 8 -0 5 10 5 2 5 6 6 4 1 0 2 2 1 2 2 2 3 4 4 4
15 18 16 11 6 2 3 7 9 8 7 7 6 5 5 8 9 9 10 12 13 15 17 19 21 22 21 19 19 17 13 12 11 9 9 9 8 9 12 13 13 13 12 12 11 8 8 14 11 1 3 12 11 4 5 7 4 -3 -6 0 12 12 3 5 12 7 -1 2 5 2 1 2 1 4 8 7 5 5 4 1 0 2 4 4 3 2 2
17 14 13 12 10 5 2 4 8 9 8 8 9 8 7 6 6 5 6 7 7 8 8 10 13 15 16 16 17 16 14 13 12 10 9 9 8 7 8 9 10 12 12 12 12 10 10 14 13 9 8 11 10 7 7 9 9 4 -6 -7 5 14 8 -0 -1 -1 -1 1 -0 1 5 4 1 1 5 6 5 5 3 1 2 4 5 4 2 1 2
28 21 13 10 10 9 5 2 4 8 9 7 7 8 8 7 5 3 3 5 8 9 7 6 6 6 6 7 8 9 10 11 11 12 13 12 12 11 10 8 8 9 10 11 11 11 11 15 15 11 6 5 5 5 2 -0 4 7 -0 -11 -7 5 9 5 4 10 14 13 8 6 5 2 -1 0 1 3 5 4 1 2 5 5 3 2 2 1 2
30 30 23 13 7 8 10 7 4 5 7 7 7 7 7 7 7 6 5 7 10 11 11 9 8 6 4 3 4 6 9 10 10 11 12 12 12 13 13 12 12 13 12 12 13 13 12 14 16 15 12 10 9 8 6 3 4 8 5 -4 -7 0 5 2 -1 3 10 15 16 15 12 10 7 4 0 -1 2 3 2 2 3 3 3 3 1 1 3
21 28 31 25 14 7 8 10 9 6 5 5 6 8 9 9 10 10 10 10 11 11 11 10 9 8 8 6 4 4 6 8 9 10 10 9 10 11 12 12 13 13 11 10 11 11 11 16 22 25 24 23 21 18 15 12 11 12 11 8 4 6 11 11 5 1 3 10 15 17 17 17 16 12 7 4 5 5 4 2 1 3 4 4 2 2 3
13 18 25 30 28 20 12 8 8 8 8 7 5 5 7 9 10 10 11 12 13 13 13 12 10 8 8 7 6 5 5 6 7 8 8 9 10 10 10 10 9 8 7 7 8 10 14 19 24 23 20 20 22 21 17 15 14 13 14 15 12 8 9 12 11 6 5 9 15 19 20 19 17 12 8 8 12 14 11 5 2 3 4 2 0 1 2
13 13 16 21 26 29 27 20 12 6 7 9 9 6 5 6 7 8 9 8 8 10 12 12 11 10 8 7 8 8 7 7 6 4 3 4 4 3 4 3 2 3 4 4 4 7 11 13 12 9 7 8 9 8 7 8 8 6 6 9 10 8 7 8 9 7 3 1 4 11 19 24 26 20 11 4 5 11 12 10 7 6 5 3 0 -1 -0
13 12 13 15 17 22 28 31 27 17 8 6 9 10 9 7 6 7 8 7 7 7 8 9 10 11 9 8 7 6 6 7 7 5 4 4 2 1 2 3 3 3 3 1 -1 2 5 6 4 2 2 4 4 4 3 4 4 4 3 3 3 4 4 4 6 8 6 1 -2 -2 1 8 18 25 24 16 7 4 6 9 9 8 9 10 8 4 1
14 11 10 13 15 16 18 23 30 30 22 14 10 10 10 9 9 7 7 7 8 8 8 9 9 10 10 9 9 7 6 6 7 7 5 4 4 4 5 6 5 3 1 -0 -0 2 3 3 2 2 2 2 2 3 4 4 3 5 6 6 6 6 6 6 6 5 4 5 6 4 -1 -3 0 8 19 26 25 17 11 6 4 4 7 12 15 12 5
12 12 12 12 13 14 14 16 22 28 28 24 20 15 12 10 11 10 10 9 9 9 9 10 10 10 10 11 11 10 8 8 8 6 3 2 3 5 5 4 5 4 4 4 5 5 4 3 3 3 3 3 3 2 2 2 3 4 5 6 8 9 9 8 9 8 6 5 6 8 9 8 3 -1 3 13 21 24 21 15 8 4 3 5 11 15 9
3 9 16 17 13 10 10 11 15 18 19 20 22 23 20 16 13 11 12 12 11 10 9 10 10 11 12 11 11 13 14 13 11 7 4 4 5 3 1 2 6 8 9 8 8 6 5 5 5 5 5 5 5 4 4 3 3 4 4 4 6 7 7 6 7 8 8 6 5 4 7 9 9 7 6 5 7 14 23 25 21 14 6 2 6 15 16
1 7 14 15 12 11 10 9 11 14 16 14 16 20 23 21 18 15 14 14 13 13 12 11 12 15 15 13 12 13 13 12 11 8 6 5 4 2 2 5 9 11 10 9 7 6 6 6 6 6 6 6 5 5 6 6 5 5 5 5 5 5 5 5 5 7 9 8 6 4 3 3 4 6 9 9 8 11 18 24 26 25 18 9 4 8 14
Height
5883 5883 5884 5884 5885 5886 5886 5887 5887 5888 5889 5889 5890 5890 5890 5890 5891 5891 5891 5892 5892 5892 5892 5892 5892 5892 5892 5892 5892 5892 5892 5891 5891 5890 5890 5889 5889 5888 5888 5887 5886 5885 5883 5882 5881 5880 5879 5878 5877 5876 5875 5873 5871 5869 5867 5865 5863 5861 5858 5856 5853 5850 5848 5846 5843 5839 5836 5833 5830 5826 5823 5818 5813 5808 5804 5800 5796 5792 5788 5784 5780 5777 5772 5766 5761 5758 5753
5883 5884 5884 5885 5885 5886 5886 5887 5887 5888 5889 5889 5890 5890 5890 5891 5891 5891 5891 5892 5892 5892 5892 5892 5892 5892 5892 5892 5892 5892 5891 5891 5891 5890 5890 5889 5889 5888 5887 5887 5885 5884 5883 5882 5881 5880 5879 5878 5877 5876 5874 5872 5870 5868 5866 5864 5862 5860 5857 5854 5852 5849 5846 5844 5841 5839 5836 5833 5830 5826 5821 5817 5812 5808 5804 5799 5796 5792 5788 5784 5780 5776 5771 5766 5761 5758 5754
5883 5884 5885 5885 5886 5886 5887 5887 5888 5888 5889 5889 5890 5890 5890 5891 5891 5891 5891 5892 5892 5892 5892 5892 5892 5892 5892 5892 5892 5891 5891 5891 5890 5890 5890 5889 5888 5888 5887 5886 5885 5884 5883 5882 5881 5880 5879 5878 5876 5875 5873 5872 5870 5868 5865 5863 5861 5859 5857 5854 5851 5848 5845 5842 5839 5836 5833 5830 5826 5823 5819 5815 5811 5807 5803 5798 5794 5790 5786 5782 5778 5774 5769 5764 5759 5756 5754
5883 5884 5885 5885 5886 5887 5887 5887 5888 5888 5889 5889 5890 5890 5890 5891 5891 5891 5891 5891 5892 5892 5892 5892 5892 5892 5892 5892 5891 5891 5891 5890 5890 5890 5889 5889 5888 5887 5886 5885 5884 5883 5883 5882 5881 5879 5878 5877 5876 5874 5873 5871 5869 5867 5865 5863 5861 5858 5856 5854 5851 5848 5844 5841 5837 5834 5831 5827 5824 5821 5817 5813 5809 5806 5802 5797 5793 5788 5784 5780 5776 5772 5768 5765 5759 5753 5750
5883 5884 5884 5885 5886 5886 5887 5887 5888 5888 5889 5889 5889 5890 5890 5891 5891 5891 5891 5891 5891 5892 5892 5892 5892 5892 5891 5891 5891 5890 5890 5890 5890 5889 5889 5888 5887 5886 5886 5885 5884 5883 5882 5881 5880 5879 5878 5877 5875 5873 5872 5870 5868 5866 5864 5862 5860 5858 5855 5853 5850 5847 5844 5840 5837 5833 5830 5827 5824 5820 5816 5812 5808 5805 5801 5797 5792 5787 5783 5779 5775 5770 5766 5763 5759 5752 5747
5882 5883 5884 5885 5885 5886 5887 5887 5888 5888 5888 5889 5889 5889 5890 5890 5890 5891 5891 5891 5891 5891 5891 5891 5891 5891 5891 5890 5890 5890 5889 5889 5889 5888 5888 5887 5886 5886 5885 5884 5883 5882 5881 5880 5879 5878 5877 5876 5874 5873 5871 5869 5867 5865 5863 5861 5859 5857 5854 5852 5849 5846 5843 5840 5836 5832 5829 5826 5823 5819 5815 5812 5807 5803 5799 5796 5792 5787 5783 5778 5773 5769 5765 5761 5757 5752 5746
5881 5882 5883 5884 5885 5885 5886 5887 5887 5887 5888 5888 5889 5889 5889 5889 5890 5890 5890 5890 5890 5890 5890 5890 5890 5890 5890 5890 5889 5889 5889 5888 5888 5887 5887 5886 5885 5885 5884 5883 5882 5881 5881 5880 5879 5877 5876 5875 5873 5871 5870 5868 5866 5864 5862 5860 5858 5855 5853 5850 5848 5845 5842 5839 5836 5832 5828 5825 5822 5819 5815 5811 5807 5802 5798 5794 5791 5787 5782 5777 5772 5769 5765 5760 5755 5751 5746
5879 5880 5881 5882 5883 5884 5885 5886 5886 5887 5887 5887 5888 5888 5888 5888 5889 5889 5889 5889 5889 5889 5889 5889 5889 5889 5889 5889 5888 5888 5887 5887 5886 5886 5885 5885 5884 5884 5883 5882 5881 5880 5879 5878 5877 5876 5875 5873 5872 5870 5869 5867 5865 5863 5861 5859 5856 5854 5851 5849 5846 5843 5840 5838 5835 5832 5828 5825 5821 5818 5814 5810 5806 5802 5797 5793 5789 5785 5781 5775 5771 5767 5764 5759 5754 5750 5746
5878 5879 5880 5881 5882 5883 5884 5884 5885 5886 5886 5886 5887 5887 5887 5887 5888 5888 5888 5888 5888 5888 5888 5888 5888 5888 5888 5887 5887 5887 5886 5886 5885 5885 5884 5884 5883 5882 5882 5881 5880 5879 5878 5877 5876 5875 5873 5872 5871 5869 5867 5866 5864 5862 5860 5858 5855 5853 5850 5847 5845 5842 5839 5836 5834 5831 5827 5824 5820 5816 5812 5809 5805 5800 5795 5791 5787 5783 5780 5775 5769 5764 5761 5757 5753 5748 5744
5876 5877 5878 5879 5880 5881 5882 5882 5883 5884 5884 5885 5885 5885 5886 5886 5886 5886 5887 5887 5887 5887 5887 5887 5887 5887 5887 5886 5886 5886 5885 5885 5884 5884 5883 5883 5882 5881 5880 5880 5879 5878 5877 5876 5874 5873 5872 5870 5869 5868 5866 5864 5863 5861 5858 5856 5854 5851 5849 5846 5843 5840 5838 5835 5832 5830 5826 5821 5818 5814 5810 5807 5803 5799 5794 5790 5786 5782 5779 5774 5768 5763 5759 5755 5752 5747 5742
5874 5875 5876 5877 5878 5878 5879 5880 5881 5882 5882 5883 5883 5884 5884 5884 5885 5885 5885 5885 5885 5886 5886 5885 5885 5885 5885 5885 5885 5884 5884 5884 5883 5882 5882 5881 5881 5880 5879 5878 5877 5876 5875 5874 5873 5872 5870 5869 5868 5866 5864 5863 5861 5859 5857 5855 5852 5850 5847 5844 5841 5838 5836 5832 5829 5827 5824 5820 5816 5813 5808 5804 5801 5797 5793 5789 5785 5781 5777 5773 5766 5761 5757 5753 5749 5744 5739
5871 5872 5874 5875 5876 5876 5877 5877 5878 5879 5880 5881 5881 5882 5882 5882 5883 5883 5883 5883 5884 5884 5884 5884 5884 5884 5884 5883 5883 5883 5882 5882 5882 5881 5880 5880 5879 5878 5877 5877 5876 5875 5874 5872 5871 5870 5869 5867 5866 5864 5863 5861 5859 5857 5855 5852 5850 5848 5845 5842 5839 5836 5834 5830 5827 5824 5822 5818 5815 5812 5807 5802 5798 5796 5792 5788 5784 5779 5776 5772 5766 5759 5755 5751 5746 5742 5737
5867 5869 5870 5872 5873 5874 5875 5875 5876 5876 5877 5878 5878 5879 5880 5880 5881 5881 5881 5881 5881 5882 5882 5882 5882 5882 5882 5882 5881 5881 5881 5880 5880 5879 5879 5878 5877 5876 5876 5875 5874 5873 5872 5871 5869 5868 5867 5866 5864 5863 5861 5859 5857 5855 5853 5850 5848 5845 5843 5840 5837 5834 5831 5828 5825 5821 5819 5816 5812 5808 5805 5801 5798 5795 5790 5786 5782 5777 5774 5772 5767 5759 5754 5751 5746 5741 5736
5864 5865 5867 5868 5870 5871 5872 5873 5873 5874 5874 5875 5875 5876 5877 5877 5878 5878 5879 5879 5879 5879 5879 5879 5879 5880 5880 5879 5879 5879 5879 5878 5878 5877 5877 5876 5875 5874 5874 5873 5872 5871 5870 5868 5867 5866 5865 5864 5862 5861 5859 5857 5855 5853 5850 5848 5845 5843 5840 5837 5834 5832 5829 5825 5822 5818 5815 5813 5810 5806 5803 5799 5796 5792 5787 5783 5779 5775 5771 5769 5765 5759 5753 5749 5744 5739 5734
5861 5862 5863 5864 5866 5867 5868 5869 5870 5871 5871 5872 5872 5873 5873 5874 5875 5875 5876 5876 5876 5876 5876 5877 5877 5877 5877 5877 5877 5877 5876 5876 5876 5875 5874 5874 5873 5872 5871 5870 5869 5868 5867 5866 5865 5863 5862 5861 5860 5858 5856 5855 5853 5851 5848 5846 5843 5840 5838 5835 5832 5829 5826 5822 5819 5816 5812 5809 5806 5803 5799 5795 5791 5788 5784 5780 5776 5772 5767 5764 5761 5756 5751 5746 5741 5736 5732
5857 5858 5859 5861 5862 5863 5864 5865 5866 5867 5868 5869 5869 5870 5870 5871 5871 5872 5872 5873 5873 5873 5873 5874 5874 5874 5874 5874 5874 5874 5873 5873 5873 5872 5872 5871 5870 5869 5868 5868 5867 5865 5864 5863 5862 5861 5859 5858 5856 5855 5854 5852 5850 5848 5846 5843 5841 5838 5835 5832 5829 5826 5824 5820 5817 5813 5809 5806 5803 5799 5794 5790 5787 5784 5781 5777 5772 5768 5764 5760 5757 5752 5748 5743 5739 5735 5730
5852 5854 5855 5856 5858 5858 5859 5860 5862 5863 5864 5865 5866 5866 5867 5867 5868 5868 5869 5869 5869 5869 5870 5870 5870 5870 5871 5870 5870 5870 5870 5870 5869 5869 5869 5868 5867 5866 5865 5865 5864 5862 5861 5860 5859 5858 5856 5855 5853 5852 5851 5849 5847 5845 5843 5841 5838 5836 5833 5830 5827 5824 5821 5818 5815 5811 5807 5803 5801 5798 5793 5787 5784 5781 5777 5774 5769 5764 5760 5756 5752 5748 5744 5740 5736 5732 5728
5848 5849 5850 5852 5853 5854 5855 5856 5857 5858 5859 5860 5861 5862 5863 5863 5864 5864 5864 5865 5865 5866 5866 5867 5867 5867 5867 5867 5867 5867 5866 5866 5866 5865 5865 5864 5863 5863 5862 5861 5860 5859 5858 5857 5856 5855 5853 5851 5850 5849 5848 5846 5844 5842 5840 5838 5836 5833 5830 5827 5825 5822 5819 5816 5812 5809 5805 5801 5798 5797 5792 5786 5782 5778 5774 5770 5766 5762 5757 5753 5749 5745 5741 5738 5734 5730 5726
5843 5844 5845 5847 5848 5849 5850 5851 5852 5853 5854 5855 5856 5857 5858 5859 5859 5860 5860 5860 5861 5861 5862 5863 5863 5863 5863 5863 5863 5863 5863 5862 5862 5861 5861 5860 5860 5859 5858 5858 5857 5856 5855 5854 5852 5851 5850 5848 5846 5845 5844 5843 5841 5839 5837 5835 5832 5830 5827 5824 5821 5818 5815 5813 5809 5806 5802 5798 5795 5792 5789 5785 5780 5776 5772 5767 5763 5759 5755 5751 5747 5743 5740 5737 5733 5728 5724
5838 5839 5841 5842 5843 5844 5844 5845 5846 5848 5849 5850 5851 5852 5853 5854 5854 5855 5855 5855 5856 5856 5857 5858 5858 5858 5859 5859 5859 5858 5858 5858 5858 5857 5857 5856 5856 5855 5854 5853 5852 5852 5851 5850 5848 5847 5846 5845 5843 5841 5841 5839 5837 5836 5834 5833 5830 5827 5823 5821 5819 5814 5810 5808 5806 5802 5799 5796 5792 5787 5783 5780 5778 5773 5768 5765 5760 5756 5753 5750 5746 5742 5738 5734 5731 5726 5722
5833 5834 5835 5837 5837 5838 5839 5840 5841 5842 5843 5844 5845 5846 5847 5848 5849 5849 5850 5850 5851 5851 5851 5852 5853 5853 5853 5854 5854 5854 5854 5853 5853 5853 5853 5852 5851 5851 5850 5849 5848 5847 5846 5845 5844 5843 5842 5841 5839 5838 5837 5835 5833 5832 5830 5830 5829 5825 5820 5818 5817 5813 5808 5804 5802 5799 5795 5792 5789 5784 5779 5776 5774 5771 5766 5762 5758 5754 5751 5748 5744 5740 5736 5732 5728 5724 5720
5828 5829 5830 5831 5832 5833 5834 5835 5835 5836 5837 5838 5840 5841 5841 5842 5843 5844 5845 5845 5846 5846 5846 5847 5848 5848 5848 5848 5849 5849 5849 5849 5849 5849 5848 5847 5847 5846 5845 5844 5843 5843 5842 5841 5840 5839 5838 5836 5835 5834 5833 5831 5829 5828 5826 5825 5825 5823 5819 5815 5813 5811 5806 5802 5800 5797 5793 5789 5786 5782 5778 5773 5770 5768 5765 5760 5756 5751 5747 5743 5740 5736 5733 5729 5725 5722 5718
5823 5824 5824 5826 5827 5828 5829 5829 5830 5831 5831 5832 5834 5834 5835 5836 5837 5838 5839 5840 5840 5841 5841 5842 5842 5842 5842 5843 5843 5844 5844 5843 5844 5843 5843 5843 5842 5841 5840 5839 5839 5838 5837 5836 5835 5834 5833 5832 5830 5829 5828 5826 5825 5824 5823 5821 5820 5819 5816 5813 5809 5807 5803 5799 5796 5794 5792 5789 5784 5778 5776 5773 5769 5764 5761 5757 5753 5749 5744 5740 5737 5733 5730 5727 5722 5719 5715
5818 5819 5819 5820 5821 5822 5823 5824 5824 5825 5826 5827 5828 5828 5829 5830 5831 5832 5833 5833 5834 5835 5836 5837 5837 5837 5837 5837 5838 5838 5838 5838 5838 5838 5838 5837 5837 5836 5835 5834 5834 5833 5832 5831 5830 5829 5828 5827 5825 5825 5824 5822 5820 5819 5818 5817 5816 5814 5813 5810 5806 5803 5800 5796 5792 5789 5788 5786 5782 5776 5772 5770 5767 5762 5757 5753 5750 5746 5742 5738 5734 5731 5727 5724 5719 5716 5712
5813 5813 5814 5814 5816 5817 5817 5818 5819 5820 5820 5821 5822 5823 5823 5824 5825 5826 5826 5827 5828 5829 5830 5831 5832 5831 5832 5833 5833 5833 5833 5833 5832 5832 5832 5832 5831 5831 5830 5829 5828 5828 5826 5825 5825 5824 5823 5822 5820 5820 5819 5817 5816 5815 5813 5812 5810 5809 5809 5806 5801 5797 5795 5791 5787 5785 5783 5780 5778 5774 5769 5766 5762 5758 5754 5751 5747 5743 5739 5735 5731 5728 5724 5720 5717 5713 5709
5807 5808 5808 5809 5810 5811 5812 5813 5813 5814 5815 5816 5816 5817 5818 5818 5819 5820 5820 5821 5822 5822 5824 5826 5826 5826 5827 5828 5828 5827 5828 5827 5827 5827 5826 5826 5825 5825 5824 5823 5822 5822 5821 5820 5819 5818 5817 5817 5815 5814 5813 5812 5811 5811 5809 5807 5805 5804 5804 5802 5796 5791 5790 5785 5781 5779 5778 5775 5772 5769 5767 5765 5761 5755 5751 5748 5744 5740 5736 5732 5728 5725 5722 5718 5714 5710 5706
5802 5802 5802 5802 5804 5805 5806 5807 5808 5808 5809 5810 5811 5811 5812 5812 5813 5814 5814 5815 5816 5815 5817 5819 5820 5820 5822 5823 5822 5822 5823 5822 5822 5821 5821 5820 5820 5819 5818 5817 5816 5815 5814 5814 5813 5812 5812 5811 5810 5808 5807 5806 5806 5806 5805 5803 5801 5800 5801 5797 5791 5787 5785 5781 5776 5773 5771 5770 5766 5762 5759 5759 5758 5752 5747 5744 5741 5737 5733 5729 5725 5722 5719 5715 5712 5708 5704
5797 5797 5797 5797 5798 5799 5800 5802 5802 5803 5804 5804 5805 5806 5806 5806 5807 5807 5808 5809 5810 5809 5810 5812 5813 5814 5816 5817 5816 5816 5817 5817 5817 5816 5815 5815 5814 5813 5812 5812 5810 5809 5808 5807 5807 5807 5806 5805 5805 5803 5801 5800 5799 5800 5801 5798 5796 5798 5797 5792 5786 5783 5781 5777 5772 5767 5765 5764 5762 5756 5753 5752 5751 5747 5743 5740 5737 5733 5730 5726 5723 5719 5716 5713 5709 5706 5702
5791 5791 5791 5791 5792 5793 5794 5795 5797 5797 5798 5799 5799 5800 5801 5801 5801 5802 5802 5803 5803 5803 5804 5805 5807 5808 5810 5811 5811 5811 5811 5811 5811 5810 5809 5809 5808 5807 5807 5806 5805 5804 5803 5802 5802 5801 5801 5800 5800 5798 5797 5795 5793 5794 5796 5793 5792 5795 5794 5787 5781 5779 5777 5773 5767 5761 5759 5759 5757 5752 5749 5747 5746 5743 5740 5737 5733 5729 5727 5724 5720 5717 5714 5710 5706 5703 5699
5785 5786 5786 5787 5787 5787 5788 5789 5790 5791 5793 5794 5794 5794 5795 5795 5796 5796 5796 5796 5797 5797 5797 5798 5800 5802 5804 5805 5806 5806 5805 5805 5805 5804 5803 5803 5802 5801 5800 5800 5798 5797 5796 5796 5796 5795 5796 5796 5794 5793 5792 5790 5787 5787 5789 5787 5786 5790 5790 5783 5777 5774 5773 5770 5763 5756 5754 5755 5753 5748 5745 5743 5741 5739 5736 5733 5729 5725 5723 5721 5717 5714 5711 5707 5703 5700 5696
5779 5780 5781 5781 5781 5782 5783 5783 5783 5784 5786 5788 5789 5789 5789 5789 5790 5791 5791 5790 5790 5791 5791 5792 5794 5795 5797 5800 5801 5801 5800 5799 5799 5798 5797 5796 5796 5795 5794 5793 5792 5791 5790 5790 5789 5789 5790 5790 5788 5788 5788 5785 5782 5781 5781 5779 5780 5783 5784 5780 5774 5771 5769 5766 5759 5751 5749 5750 5748 5746 5743 5739 5736 5734 5732 5729 5725 5721 5719 5717 5714 5711 5708 5704 5700 5697 5693
5773 5774 5775 5775 5775 5776 5777 5777 5777 5778 5779 5781 5783 5783 5784 5784 5784 5784 5784 5784 5784 5785 5785 5786 5788 5789 5791 5794 5796 5796 5795 5794 5793 5792 5791 5790 5789 5788 5787 5786 5785 5783 5783 5783 5782 5783 5784 5784 5782 5782 5782 5780 5777 5775 5774 5774 5775 5776 5777 5775 5771 5766 5763 5759 5753 5748 5746 5744 5742 5740 5739 5736 5731 5728 5727 5725 5721 5718 5716 5714 5711 5707 5704 5701 5697 5693 5690
5768 5768 5769 5769 5770 5770 5771 5771 5772 5772 5772 5774 5775 5776 5777 5778 5779 5778 5778 5778 5778 5779 5779 5780 5782 5784 5785 5788 5790 5790 5790 5789 5788 5786 5785 5785 5783 5782 5780 5779 5778 5777 5777 5777 5776 5776 5778 5778 5776 5775 5775 5775 5772 5768 5768 5771 5772 5769 5768 5769 5766 5760 5756 5753 5747 5744 5742 5740 5736 5733 5732 5730 5728 5724 5722 5719 5716 5714 5712 5710 5706 5703 5700 5697 5693 5690 5686
5761 5762 5762 5763 5764 5764 5765 5765 5765 5766 5767 5767 5768 5769 5771 5772 5773 5773 5772 5772 5772 5773 5774 5775 5777 5778 5780 5781 5783 5785 5784 5783 5781 5781 5780 5778 5777 5775 5774 5772 5771 5771 5770 5771 5770 5770 5772 5771 5769 5768 5770 5770 5766 5762 5765 5769 5768 5763 5761 5763 5760 5754 5750 5747 5743 5740 5738 5735 5732 5728 5725 5724 5722 5720 5717 5714 5711 5708 5706 5704 5701 5698 5696 5693 5689 5685 5682
5755 5756 5756 5757 5758 5759 5759 5759 5760 5761 5762 5761 5762 5763 5764 5765 5767 5767 5767 5767 5768 5768 5770 5771 5771 5774 5776 5776 5777 5779 5778 5776 5775 5775 5773 5771 5770 5769 5767 5765 5765 5765 5764 5764 5765 5766 5766 5764 5762 5762 5764 5763 5760 5760 5763 5764 5760 5757 5757 5756 5753 5748 5744 5741 5737 5735 5733 5730 5728 5725 5721 5718 5717 5716 5713 5710 5707 5703 5701 5699 5696 5693 5691 5688 5685 5681 5678
5749 5749 5750 5751 5752 5753 5753 5754 5754 5755 5756 5756 5756 5757 5758 5760 5761 5761 5762 5763 5763 5764 5765 5765 5767 5770 5772 5770 5770 5772 5771 5770 5769 5768 5765 5764 5763 5761 5760 5759 5759 5758 5757 5758 5760 5761 5759 5756 5755 5755 5757 5757 5757 5759 5759 5756 5753 5752 5752 5750 5747 5743 5738 5734 5731 5729 5728 5726 5723 5720 5717 5714 5712 5711 5708 5705 5702 5699 5696 5694 5691 5688 5686 5684 5680 5676 5673
5742 5743 5744 5745 5746 5747 5747 5748 5749 5750 5751 5751 5752 5752 5753 5754 5755 5755 5757 5758 5758 5760 5761 5760 5763 5767 5767 5764 5764 5765 5764 5763 5762 5760 5757 5756 5755 5753 5752 5752 5751 5749 5750 5753 5755 5754 5751 5749 5748 5749 5750 5752 5754 5755 5754 5750 5748 5747 5745 5744 5743 5739 5733 5729 5726 5723 5722 5721 5719 5716 5712 5709 5707 5705 5703 5700 5697 5694 5691 5689 5686 5683 5681 5679 5675 5672 5669
5736 5737 5737 5738 5739 5740 5741 5742 5744 5745 5746 5747 5747 5748 5748 5749 5749 5750 5752 5753 5753 5754 5755 5755 5759 5763 5760 5757 5757 5757 5755 5755 5754 5751 5748 5747 5745 5744 5745 5744 5742 5741 5744 5747 5748 5747 5743 5742 5742 5743 5745 5748 5751 5751 5748 5745 5743 5741 5739 5738 5737 5734 5729 5725 5721 5717 5715 5715 5714 5712 5708 5704 5702 5700 5697 5695 5692 5689 5686 5683 5681 5677 5675 5673 5670 5667 5664
5729 5731 5731 5732 5733 5734 5735 5737 5739 5740 5741 5742 5743 5743 5744 5745 5746 5746 5747 5747 5748 5749 5749 5749 5753 5755 5753 5751 5750 5748 5746 5746 5744 5742 5740 5739 5737 5737 5738 5737 5734 5734 5736 5739 5741 5740 5736 5735 5736 5738 5741 5744 5747 5747 5744 5740 5738 5736 5734 5731 5729 5727 5723 5720 5716 5712 5709 5708 5708 5706 5702 5698 5696 5694 5692 5690 5687 5684 5681 5679 5676 5672 5670 5667 5665 5662 5659
5723 5724 5725 5726 5727 5728 5729 5731 5733 5734 5736 5737 5738 5739 5740 5742 5742 5742 5742 5742 5743 5743 5742 5742 5744 5745 5744 5743 5741 5739 5737 5736 5734 5732 5731 5730 5729 5729 5729 5728 5727 5726 5728 5732 5735 5732 5729 5729 5731 5734 5738 5741 5742 5741 5737 5734 5732 5730 5727 5724 5721 5719 5717 5715 5712 5707 5704 5703 5701 5699 5696 5692 5690 5687 5685 5683 5681 5679 5676 5673 5670 5667 5665 5662 5659 5657 5654
5718 5718 5719 5720 5721 5721 5723 5724 5726 5728 5730 5732 5733 5735 5736 5738 5738 5737 5737 5738 5738 5736 5735 5736 5737 5736 5735 5734 5732 5729 5728 5727 5725 5724 5723 5722 5722 5722 5721 5720 5719 5718 5721 5727 5728 5724 5722 5723 5726 5730 5736 5737 5735 5732 5730 5727 5725 5723 5720 5716 5713 5711 5710 5710 5707 5703 5699 5697 5695 5693 5689 5686 5684 5681 5679 5677 5675 5672 5670 5667 5664 5661 5659 5656 5654 5652 5649
5712 5713 5713 5714 5715 5715 5716 5718 5720 5721 5723 5725 5727 5730 5732 5733 5733 5732 5731 5731 5731 5730 5729 5729 5729 5727 5726 5725 5723 5721 5720 5719 5718 5717 5715 5714 5715 5715 5714 5712 5711 5712 5716 5720 5719 5716 5716 5717 5721 5728 5733 5731 5727 5724 5722 5718 5716 5714 5712 5709 5706 5703 5702 5703 5701 5698 5695 5692 5689 5687 5684 5681 5678 5676 5673 5671 5669 5666 5664 5661 5658 5656 5652 5650 5649 5647 5644
5706 5707 5708 5709 5709 5709 5710 5712 5713 5715 5717 5719 5721 5724 5726 5727 5726 5725 5724 5724 5723 5723 5722 5721 5720 5719 5718 5717 5715 5714 5713 5712 5711 5710 5708 5707 5707 5707 5706 5705 5705 5706 5709 5710 5710 5710 5712 5712 5716 5724 5727 5723 5718 5717 5714 5710 5707 5707 5705 5702 5698 5695 5694 5695 5694 5692 5689 5686 5683 5681 5678 5675 5672 5670 5668 5665 5663 5661 5658 5655 5652 5649 5647 5645 5644 5642 5639
5700 5700 5702 5703 5703 5703 5704 5707 5708 5709 5711 5714 5716 5717 5719 5720 5718 5718 5717 5716 5715 5715 5714 5712 5711 5711 5710 5709 5708 5708 5707 5705 5704 5702 5700 5699 5699 5699 5699 5699 5700 5701 5701 5702 5703 5705 5707 5708 5713 5718 5718 5714 5711 5709 5706 5702 5700 5699 5698 5696 5691 5686 5684 5685 5686 5685 5683 5680 5677 5675 5672 5668 5666 5665 5663 5660 5657 5655 5653 5650 5646 5642 5641 5640 5639 5637 5634
5694 5695 5696 5697 5698 5698 5699 5701 5703 5704 5706 5708 5710 5710 5711 5712 5711 5710 5709 5709 5708 5707 5705 5704 5703 5703 5702 5701 5700 5700 5700 5698 5696 5695 5693 5691 5692 5692 5692 5692 5694 5694 5695 5696 5699 5701 5703 5705 5709 5710 5708 5705 5703 5700 5697 5695 5692 5690 5689 5689 5686 5681 5676 5674 5674 5675 5675 5673 5671 5670 5667 5663 5660 5658 5657 5655 5652 5649 5647 5645 5640 5637 5636 5636 5635 5632 5629
5689 5689 5689 5690 5692 5693 5694 5696 5698 5700 5701 5702 5703 5702 5703 5703 5702 5701 5701 5701 5700 5698 5697 5696 5694 5694 5693 5692 5691 5691 5692 5690 5688 5687 5686 5685 5685 5686 5686 5687 5688 5689 5690 5692 5694 5697 5700 5702 5703 5701 5698 5697 5695 5691 5688 5686 5684 5681 5680 5680 5679 5677 5673 5669 5666 5665 5665 5663 5662 5661 5659 5657 5654 5652 5650 5649 5647 5643 5641 5638 5634 5632 5631 5631 5629 5626 5623
5683 5684 5683 5684 5686 5688 5689 5691 5693 5694 5694 5695 5695 5694 5694 5694 5693 5693 5693 5693 5692 5690 5689 5687 5686 5685 5684 5683 5681 5682 5683 5682 5680 5679 5680 5679 5678 5679 5680 5681 5682 5684 5686 5688 5690 5694 5696 5696 5694 5691 5689 5688 5686 5683 5681 5678 5676 5673 5672 5670 5669 5669 5667 5664 5661 5658 5656 5654 5653 5651 5649 5648 5647 5645 5644 5642 5640 5636 5633 5629 5627 5626 5625 5624 5622 5620 5616
5676 5677 5678 5679 5681 5683 5685 5685 5685 5686 5687 5688 5687 5686 5685 5685 5685 5685 5685 5684 5682 5681 5679 5678 5676 5675 5674 5674 5673 5673 5673 5673 5671 5671 5672 5671 5671 5672 5673 5674 5676 5680 5683 5685 5687 5691 5691 5688 5684 5682 5681 5679 5677 5675 5673 5670 5668 5666 5664 5661 5660 5659 5658 5656 5654 5651 5648 5645 5643 5641 5640 5639 5637 5636 5635 5634 5633 5630 5626 5622 5619 5617 5615 5614 5613 5612 5609
5670 5671 5673 5674 5675 5678 5678 5676 5676 5679 5683 5681 5678 5677 5677 5677 5677 5677 5675 5673 5672 5671 5669 5667 5666 5665 5664 5664 5664 5663 5664 5664 5663 5661 5661 5662 5664 5665 5666 5666 5670 5676 5682 5683 5683 5684 5683 5679 5674 5673 5671 5669 5668 5667 5665 5662 5660 5658 5655 5653 5651 5650 5648 5647 5645 5643 5640 5637 5632 5630 5629 5629 5628 5626 5625 5624 5624 5623 5621 5617 5613 5609 5606 5604 5604 5603 5601
5663 5665 5667 5668 5668 5671 5671 5668 5668 5673 5676 5672 5669 5669 5670 5669 5669 5668 5666 5664 5663 5661 5659 5658 5657 5655 5653 5653 5653 5653 5654 5655 5653 5651 5652 5655 5658 5658 5657 5659 5664 5673 5680 5680 5674 5670 5669 5667 5665 5663 5662 5660 5658 5657 5655 5653 5651 5649 5646 5644 5642 5640 5638 5637 5635 5633 5632 5629 5625 5621 5619 5617 5616 5615 5614 5614 5613 5613 5613 5611 5608 5602 5598 5597 5595 5593 5591
5656 5659 5661 5661 5661 5663 5663 5660 5661 5665 5667 5665 5662 5661 5662 5661 5661 5659 5656 5654 5653 5651 5650 5649 5647 5643 5643 5644 5644 5644 5643 5642 5642 5642 5645 5650 5652 5651 5650 5654 5660 5667 5671 5669 5662 5656 5655 5655 5653 5652 5652 5650 5647 5645 5644 5642 5641 5640 5637 5635 5632 5630 5629 5627 5625 5623 5621 5620 5617 5615 5612 5610 5606 5604 5602 5601 5602 5602 5602 5602 5600 5596 5591 5589 5588 5586 5583
5651 5653 5653 5653 5655 5656 5654 5652 5653 5657 5659 5658 5655 5654 5654 5654 5652 5649 5646 5645 5644 5643 5643 5640 5636 5633 5634 5635 5634 5632 5630 5630 5632 5634 5638 5644 5648 5647 5646 5649 5655 5657 5655 5652 5649 5646 5644 5643 5641 5640 5640 5639 5637 5635 5633 5631 5630 5629 5627 5624 5622 5621 5619 5617 5616 5613 5611 5610 5609 5607 5605 5603 5600 5596 5593 5591 5591 5590 5588 5589 5590 5587 5583 5581 5581 5579 5576